DW8548 Weather Reports


time (UTC)temp
F
wind
direction
speed
knots
gust
knots
rain 1hr
in
rain 24hr
in
rain mn
in
humidity
%
barometer
mb
20260504090137 64 175 0.0 3.5 0.00 0.00 0.00 70 1024.9
20260504081553 66 217 1.7 6.1 0.00 0.00 0.00 66 1025.0
20260504050107 69 0 0.0 2.6 0.00 0.00 0.00 56 1025.6
20260504044602 70 0 0.0 5.2 0.00 0.00 0.00 56 1025.8
20260504043058 69 163 0.9 3.5 0.00 0.00 0.00 58 1025.9
20260504041554 69 93 0.9 2.6 0.00 0.00 0.00 59 1026.2
20260504040106 68 75 0.0 5.2 0.00 0.00 0.00 59 1026.5
20260504034600 67 0 0.0 0.9 0.00 0.00 0.00 60 1026.8
20260504033126 66 0 0.0 2.6 0.00 0.00 0.00 61 1027.0
20260504031558 66 75 0.0 2.6 0.00 0.00 0.00 64 1027.1
20260504030101 65 0 0.0 1.7 0.00 0.00 0.00 66 1027.3
20260504024559 64 78 0.0 2.6 0.00 0.00 0.00 66 1027.5
20260504023102 64 0 0.0 2.6 0.00 0.00 0.00 68 1027.4
20260504021556 63 114 0.9 3.5 0.00 0.00 0.00 70 1027.3
20260504020100 63 0 0.9 5.2 0.00 0.00 0.00 69 1027.4
20260504014558 62 0 0.9 4.3 0.00 0.00 0.00 70 1027.5
20260504013106 61 96 0.9 4.3 0.00 0.00 0.00 73 1027.6
20260504011557 60 0 0.0 3.5 0.00 0.00 0.00 76 1027.8
20260504010111 59 79 0.0 3.5 0.00 0.00 0.00 78 1027.9
20260504004625 58 0 0.0 5.2 0.00 0.00 0.00 81 1027.8
20260504003057 56 86 0.0 2.6 0.00 0.00 0.00 84 1027.8
20260504001612 55 116 0.0 2.6 0.00 0.00 0.00 87 1027.6
20260504000103 53 0 0.0 1.7 0.00 0.00 0.00 88 1027.7
20260503234557 52 61 0.0 3.5 0.00 0.00 0.00 90 1027.5
20260503233330 50 90 0.0 3.5 0.00 0.00 0.00 90 1027.4
20260503231559 49 0 0.0 0.9 0.00 0.00 0.00 90 1027.3
20260503224554 49 0 0.0 0.9 0.00 0.00 0.00 89 1026.9
20260503223100 49 0 0.0 1.7 0.00 0.00 0.00 90 1026.8
20260503221554 49 0 0.0 1.7 0.00 0.00 0.00 90 1026.8
20260503220058 48 0 0.0 0.9 0.00 0.00 0.00 90 1026.8
20260503214553 47 0 0.0 0.0 0.00 0.00 0.00 89 1026.8
20260503213107 47 0 0.0 0.0 0.00 0.00 0.00 89 1026.8
20260503211557 48 0 0.0 0.0 0.00 0.00 0.00 89 1026.6
20260503210100 48 0 0.0 0.9 0.00 0.00 0.00 89 1026.6
20260503204600 48 0 0.0 0.0 0.00 0.00 0.00 88 1026.4
20260503203104 49 0 0.0 0.9 0.00 0.00 0.00 89 1026.5
20260503201642 49 81 0.0 1.7 0.00 0.00 0.00 88 1026.4
20260503200101 49 0 0.0 1.7 0.00 0.00 0.00 89 1026.1
20260503194555 49 0 0.0 2.6 0.00 0.00 0.00 89 1026.4
20260503193101 48 117 0.0 0.9 0.00 0.00 0.00 89 1026.4
20260503191620 48 0 0.0 0.9 0.00 0.00 0.00 89 1026.4
20260503190101 48 0 0.0 0.0 0.00 0.00 0.00 89 1026.5
20260503184559 49 0 0.0 0.0 0.00 0.00 0.00 89 1026.4
20260503183114 48 0 0.0 0.0 0.00 0.00 0.00 89 1026.3
20260503181602 48 0 0.0 0.9 0.00 0.00 0.00 90 1026.2
20260503180058 47 0 0.0 0.0 0.00 0.00 0.00 89 1026.1
20260503174606 47 0 0.0 0.0 0.00 0.00 0.00 89 1026.1
20260503173116 48 0 0.0 0.0 0.00 0.00 0.00 88 1026.1
20260503171554 49 0 0.0 0.0 0.00 0.00 0.00 88 1026.1
20260503120124 57 0 0.0 1.7 0.00 0.00 0.00 77 1025.3
20260503100105 59 0 0.0 0.0 0.00 0.00 0.00 78 1024.5